[[{"header":{"parameterUnit":"m.s-1","parameterCategory":2,"la1":30.2991,"la2":30.254,"lo1":-89.0895,"lo2":-89.0444,"dy":0.0017,"dx":0.0017,"nx":28,"ny":28,"refTime":"2023-10-22T21:00:00:Z","depth":"0","parameterNumber":2,"parameterNumberName":"U-component_of_CURRENTS"},"data":[0,0,0,0,0,0,0,0,0,0,0,0,0,0,0,0,0,0,0,0,0,0,0,0,0,0,0,0,0,0,0,0,0,0,0,0,0,0,0,0,0,0,0,0,0,0,0,0,0,0,0,0,0,0,0,0,0,0,-0.2653,-0.2653,0,-0.2597,-0.2596,-0.2595,-0.2554,-0.2554,-0.2554,-0.2554,-0.2422,-0.2419,-0.2415,0,0,0,0,0,0,0,0,0,0,0,0,0,-0.2609,-0.2611,-0.2653,-0.2653,-0.2652,-0.2597,-0.2596,-0.2595,-0.2554,-0.2554,-0.2554,-0.2554,-0.2423,-0.2419,-0.2415,0,0,0,0,0,0,0,0,0,0,0,0,0,-0.2594,-0.2611,-0.2653,-0.2628,-0.2626,-0.2597,-0.2596,-0.2594,-0.2554,-0.2554,-0.2554,-0.2554,-0.2425,-0.242,-0.2414,-0.2381,0,0,-0.2398,-0.2396,0,0,0,0,0,0,0,0,-0.2595,-0.2596,-0.2632,-0.263,-0.2627,-0.2586,-0.2532,-0.2521,-0.2554,-0.2576,-0.2554,-0.2554,-0.2473,-0.2464,-0.2448,-0.2374,-0.2369,-0.2398,-0.2395,-0.2392,-0.2391,0,0,0,0,0,0,0,-0.2597,-0.2597,-0.2626,-0.2632,-0.2629,-0.2581,-0.2579,-0.2529,-0.252,-0.2574,-0.2572,-0.2573,-0.247,-0.2453,-0.2444,-0.2367,-0.2398,-0.2393,-0.239,-0.2388,-0.2251,-0.225,0,0,0,0,0,0,-0.2619,-0.2599,-0.2628,-0.2625,-0.2616,-0.2582,-0.258,-0.2596,-0.2522,-0.2513,-0.2573,-0.2571,-0.2462,-0.2451,-0.2439,-0.2367,-0.2392,-0.2387,-0.2384,-0.2251,-0.2251,-0.225,0,0,0,0,0,0,-0.2618,-0.2622,-0.2631,-0.2613,-0.2611,-0.2585,-0.2601,-0.2595,-0.2577,-0.2523,-0.2511,-0.2562,-0.2462,-0.2447,-0.2396,-0.2363,-0.2385,-0.238,-0.2252,-0.2251,-0.225,-0.2241,0,0,0,0,0,0,-0.2617,-0.2623,-0.2634,-0.2615,-0.2613,-0.2609,-0.2601,-0.2594,-0.2579,-0.2576,-0.251,-0.2498,-0.2461,-0.2404,-0.2391,-0.2356,-0.2376,-0.2252,-0.2251,-0.2251,-0.2242,-0.224,-0.2238,0,0,0,0,0,-0.2616,-0.2632,-0.2635,-0.2638,-0.2633,-0.2609,-0.2602,-0.2579,-0.2579,-0.2565,-0.2527,-0.25,-0.2389,-0.2399,-0.2384,-0.2347,-0.2253,-0.2252,-0.2251,-0.2243,-0.224,-0.2238,0,0,0,0,0,0,-0.2598,-0.2629,-0.2632,-0.2651,-0.2631,-0.2604,-0.2595,-0.2581,-0.2541,-0.254,-0.2491,-0.2475,-0.2419,-0.2391,-0.2404,-0.2309,-0.2317,-0.2313,-0.2316,-0.2314,-0.2312,-0.2295,-0.2372,0,0,0,0,0,-0.2608,-0.2641,-0.2635,-0.2647,-0.2644,-0.2621,-0.2608,-0.2593,-0.2561,-0.2544,-0.2499,-0.2453,-0.2402,-0.2367,-0.2324,-0.2266,-0.2243,-0.2236,-0.2234,-0.2233,-0.2211,-0.2163,-0.2155,-0.2247,-0.2247,-0.2247,0,0,-0.2605,-0.2625,-0.2642,-0.2647,-0.2635,-0.2607,-0.2612,-0.2596,-0.2558,-0.2535,-0.2472,-0.2446,-0.239,-0.2328,-0.23,-0.2298,-0.2198,-0.2231,-0.223,-0.2208,-0.2161,-0.2152,-0.2144,-0.2246,-0.2246,-0.2246,0,0,-0.2592,-0.2633,-0.264,-0.2631,-0.2621,-0.2604,-0.2602,-0.2573,-0.2549,-0.2495,-0.247,-0.2424,-0.2349,-0.2296,-0.2261,-0.2222,-0.2198,-0.222,-0.2181,-0.2136,-0.2128,-0.212,-0.2095,-0.2085,-0.221,-0.221,-0.221,0,-0.2583,-0.2579,-0.2628,-0.2614,-0.2593,-0.2602,-0.2561,-0.2542,-0.2494,-0.2462,-0.2473,-0.2363,-0.2322,-0.2231,-0.2221,-0.2212,-0.2199,-0.2192,-0.2132,-0.2124,-0.2116,-0.2092,-0.2081,-0.2209,-0.2209,-0.2209,-0.221,0,-0.255,-0.2544,-0.2544,-0.2537,-0.2528,-0.2496,-0.2485,-0.2464,-0.2445,-0.2413,-0.2341,-0.2299,-0.2229,-0.2215,-0.2199,-0.2121,-0.2137,-0.2144,-0.2136,-0.2106,-0.2084,-0.2072,-0.2209,-0.2209,-0.2209,-0.2209,0,0,-0.2514,-0.2518,-0.2511,-0.2481,-0.2476,-0.2456,-0.2423,-0.2367,-0.2338,-0.2299,-0.2238,-0.2159,-0.2159,-0.212,-0.2105,-0.2062,-0.2005,-0.208,-0.2078,-0.2052,-0.1924,-0.1921,-0.1908,-0.2011,-0.2009,-0.2007,-0.1936,0,-0.2445,-0.2394,-0.242,-0.235,-0.2309,-0.233,-0.2301,-0.2273,-0.2254,-0.2212,-0.2169,-0.2118,-0.2117,-0.2099,-0.2051,-0.2028,-0.1973,-0.2024,-0.1958,-0.1955,-0.1953,-0.1893,-0.1864,-0.1796,-0.1925,-0.1923,-0.1922,0,-0.2367,-0.2343,-0.2267,-0.224,-0.223,-0.2203,-0.2165,-0.2142,-0.2118,-0.2112,-0.2069,-0.2065,-0.1997,-0.2016,-0.1923,-0.1965,-0.1927,-0.1908,-0.1905,-0.189,-0.193,-0.1843,-0.1771,-0.1763,-0.1904,-0.1906,-0.1907,0,-0.2274,-0.2224,-0.2155,-0.2143,-0.213,-0.2104,-0.2095,-0.209,-0.2078,-0.2053,-0.2057,-0.1989,-0.1972,-0.1911,-0.1884,-0.1902,-0.1799,-0.1819,-0.1768,-0.177,-0.1719,-0.172,-0.1622,-0.1718,-0.1719,-0.1719,-0.1719,0,-0.217,-0.2114,-0.2104,-0.2071,-0.2001,-0.2029,-0.1979,-0.1985,-0.1995,-0.1985,-0.1998,-0.199,-0.1948,-0.1906,-0.1862,-0.1785,-0.1774,-0.1734,-0.1734,-0.1719,-0.172,-0.1693,-0.1711,-0.1716,-0.1717,-0.1717,-0.1718,0,-0.2074,-0.2065,-0.1996,-0.1971,-0.1956,-0.1915,-0.1923,-0.1901,-0.194,-0.1938,-0.1938,-0.197,-0.194,-0.1894,-0.1812,-0.1763,-0.166,-0.1657,-0.1656,-0.1656,-0.1607,-0.1626,-0.15,-0.145,-0.158,-0.158,-0.1579,0,-0.2017,-0.1967,-0.1927,-0.1899,-0.1883,-0.1838,-0.1818,-0.1851,-0.1853,-0.1929,-0.1922,-0.193,-0.1931,-0.1827,-0.1738,-0.1639,-0.1626,-0.155,-0.1556,-0.157,-0.1591,-0.1594,-0.1561,-0.1496,-0.1495,-0.1494,-0.1493,0,-0.191,-0.1907,-0.1868,-0.1818,-0.178,-0.1734,-0.1718,-0.1723,-0.1788,-0.1833,-0.1899,-0.1921,-0.1862,-0.1778,-0.166,-0.1588,-0.1528,-0.1526,-0.1521,-0.1485,-0.1496,-0.1462,-0.1604,-0.1484,-0.1485,-0.1486,-0.1486,-0.1486,-0.1841,-0.18,-0.1772,-0.1717,-0.1689,-0.1644,-0.1602,-0.1642,-0.1672,-0.1739,-0.1811,-0.1836,-0.1788,-0.1638,-0.1568,-0.1448,-0.145,-0.1401,-0.1415,-0.1411,-0.1373,-0.1505,-0.1404,-0.1404,-0.1405,-0.1405,-0.1406,0,-0.1728,-0.1704,-0.1669,-0.1609,-0.157,-0.1573,-0.1542,-0.1528,-0.157,-0.1631,-0.1688,-0.1689,-0.1609,-0.1555,-0.144,-0.1359,-0.1299,-0.1318,-0.1308,-0.1271,-0.1362,-0.1371,-0.1282,-0.1282,-0.1282,-0.1282,-0.1282,-0.1282,-0.1667,-0.1603,-0.159,-0.15,-0.1475,-0.1399,-0.1375,-0.1394,-0.1415,-0.147,-0.1492,-0.1502,-0.1489,-0.1539,-0.1427,-0.1341,-0.1276,-0.1243,-0.122,-0.1309,-0.1318,-0.1327,-0.1337,-0.1242,-0.1242,-0.1091,-0.109,-0.109]},{"header":{"parameterUnit":"m.s-1","parameterCategory":2,"la1":30.2991,"la2":30.254,"lo1":-89.0895,"lo2":-89.0444,"dy":0.0017,"dx":0.0017,"nx":28,"ny":28,"refTime":"2023-10-22T21:00:00:Z","depth":"0","parameterNumber":3,"parameterNumberName":"V-component_of_CURRENTS"},"data":[0,0,0,0,0,0,0,0,0,0,0,0,0,0,0,0,0,0,0,0,0,0,0,0,0,0,0,0,0,0,0,0,0,0,0,0,0,0,0,0,0,0,0,0,0,0,0,0,0,0,0,0,0,0,0,0,0,0,0.0343,0.0345,0,0.0458,0.046,0.0461,0.0535,0.0535,0.0536,0.0536,0.0607,0.0609,0.061,0,0,0,0,0,0,0,0,0,0,0,0,0,0.0192,0.0194,0.0343,0.0345,0.0346,0.0458,0.046,0.0461,0.0535,0.0535,0.0536,0.0536,0.0607,0.0609,0.0611,0,0,0,0,0,0,0,0,0,0,0,0,0,0.0277,0.0195,0.0343,0.0396,0.0402,0.0458,0.046,0.0462,0.0535,0.0535,0.0536,0.0537,0.0606,0.0609,0.0611,0.0612,0,0,0.0618,0.0619,0,0,0,0,0,0,0,0,0.0272,0.0283,0.0387,0.0392,0.0399,0.0483,0.0433,0.051,0.0535,0.0485,0.0536,0.0537,0.0561,0.0567,0.0588,0.0616,0.0619,0.0618,0.0619,0.062,0.0621,0,0,0,0,0,0,0,0.0266,0.0278,0.0389,0.0388,0.0396,0.0415,0.0428,0.0448,0.0517,0.0489,0.0495,0.0507,0.0564,0.0586,0.059,0.062,0.0618,0.062,0.0621,0.0622,0.0661,0.0661,0,0,0,0,0,0,0.0251,0.0273,0.0386,0.0393,0.0336,0.0417,0.0432,0.0455,0.0518,0.0529,0.0506,0.051,0.0582,0.0588,0.0593,0.0602,0.062,0.0622,0.0624,0.0661,0.0661,0.0661,0,0,0,0,0,0,0.0247,0.026,0.0381,0.0334,0.0351,0.0419,0.0445,0.0457,0.0479,0.0532,0.0541,0.0515,0.0583,0.059,0.0614,0.0605,0.0623,0.0626,0.0662,0.0661,0.0661,0.0618,0,0,0,0,0,0,0.0243,0.0259,0.0265,0.0334,0.0353,0.0405,0.0445,0.0459,0.0485,0.0491,0.0542,0.055,0.0584,0.061,0.0616,0.0609,0.0627,0.0662,0.0662,0.0661,0.062,0.0616,0.0613,0,0,0,0,0,0.0237,0.0247,0.0265,0.0279,0.0362,0.0404,0.0415,0.0466,0.0485,0.0489,0.0529,0.0548,0.061,0.0612,0.0619,0.0612,0.0663,0.0662,0.0661,0.0621,0.0617,0.0613,0,0,0,0,0,0,0.018,0.0258,0.0279,0.0311,0.0347,0.0416,0.0428,0.0458,0.0495,0.0499,0.0547,0.0558,0.0573,0.0597,0.0597,0.0621,0.0638,0.0638,0.0605,0.0601,0.0597,0.0592,0.0629,0,0,0,0,0,0.017,0.0206,0.0264,0.0289,0.0303,0.0361,0.0382,0.0414,0.0458,0.0476,0.0511,0.0547,0.0576,0.0591,0.0617,0.063,0.0665,0.0628,0.0625,0.0622,0.0621,0.0663,0.0664,0.0658,0.0658,0.0658,0,0,0.0158,0.0202,0.0224,0.0279,0.0314,0.0332,0.0376,0.0403,0.0419,0.0474,0.05,0.0532,0.0575,0.0595,0.0603,0.0614,0.0644,0.0621,0.0618,0.062,0.0663,0.0663,0.0664,0.0658,0.0658,0.0658,0,0,0.0149,0.0184,0.0207,0.023,0.0274,0.0306,0.0308,0.0364,0.0389,0.0414,0.0459,0.049,0.0528,0.0567,0.059,0.0579,0.0621,0.058,0.0563,0.0603,0.0604,0.0605,0.0662,0.0669,0.0582,0.0582,0.0582,0,0.0129,0.0167,0.0214,0.0229,0.0244,0.0289,0.0296,0.0325,0.0381,0.0401,0.0412,0.0488,0.0518,0.0561,0.0559,0.0572,0.0606,0.0575,0.0599,0.0601,0.0603,0.0661,0.0669,0.058,0.058,0.058,0.058,0,0.014,0.0154,0.0162,0.0201,0.0218,0.023,0.0268,0.0284,0.0311,0.035,0.0389,0.0441,0.0491,0.05,0.0527,0.0556,0.0581,0.0586,0.0609,0.0601,0.0663,0.0672,0.0576,0.0577,0.0578,0.0578,0,0,0.0162,0.0167,0.0174,0.0167,0.0202,0.0215,0.023,0.0265,0.0282,0.0325,0.0362,0.0408,0.0442,0.047,0.051,0.0544,0.0589,0.0566,0.0569,0.0622,0.0693,0.0678,0.0687,0.0597,0.0598,0.0598,0.0734,0,0.0162,0.0153,0.0172,0.0162,0.0159,0.0186,0.0197,0.0229,0.0266,0.0307,0.0365,0.041,0.043,0.0458,0.0493,0.0572,0.0609,0.0553,0.0693,0.0698,0.0685,0.0695,0.0605,0.0715,0.0744,0.0745,0.0746,0,0.0197,0.0175,0.0154,0.0132,0.0135,0.0135,0.016,0.0173,0.0235,0.0268,0.0325,0.038,0.0453,0.0459,0.0587,0.0551,0.0611,0.0665,0.0672,0.0678,0.0699,0.0726,0.0731,0.0816,0.0761,0.076,0.0759,0,0.021,0.0181,0.0152,0.0146,0.0126,0.0123,0.0119,0.0164,0.0176,0.025,0.0288,0.0376,0.0442,0.0517,0.0636,0.0612,0.0779,0.0765,0.0811,0.0813,0.0773,0.0768,0.0873,0.0837,0.0836,0.0836,0.0836,0,0.0233,0.0216,0.0143,0.0131,0.0095,0.0095,0.0088,0.011,0.0146,0.018,0.0265,0.0335,0.0457,0.0572,0.0648,0.0773,0.0796,0.0815,0.0843,0.0756,0.0749,0.085,0.0897,0.0841,0.084,0.0839,0.0838,0,0.0283,0.0236,0.0195,0.013,0.0104,0.0084,0.0045,0.0044,0.0092,0.0146,0.0173,0.0321,0.0473,0.0599,0.0758,0.0803,0.0949,0.0945,0.0846,0.0857,0.0935,0.0982,0.1138,0.1181,0.1005,0.1005,0.1005,0,0.0312,0.0286,0.0188,0.0146,0.0115,0.0063,0.003,0.0022,0.0022,0.015,0.018,0.0349,0.047,0.0703,0.0785,0.0915,0.1004,0.0937,0.0857,0.0936,0.1009,0.1056,0.1083,0.0805,0.0804,0.0803,0.0802,0,0.035,0.031,0.0263,0.017,0.011,0.0037,-0.0014,-0.0031,-0.0005,0.005,0.018,0.0292,0.0502,0.0619,0.0781,0.0843,0.0963,0.0917,0.1022,0.0879,0.0915,0.0969,0.0745,0.0792,0.0793,0.0794,0.0794,0.0795,0.0378,0.0344,0.0267,0.0184,0.0115,0.003,-0.0012,-0.006,-0.0064,-0.0011,0.0126,0.0223,0.0453,0.0642,0.0749,0.0872,0.0908,0.0895,0.0956,0.1006,0.1004,0.0765,0.0821,0.0822,0.0823,0.0824,0.0825,0,0.0388,0.0332,0.0272,0.0168,0.0107,0.0061,-0.0026,-0.0068,-0.0083,-0.0095,-0.0012,0.0147,0.0351,0.0569,0.0789,0.0895,0.0925,0.0983,0.102,0.1054,0.0853,0.0797,0.0821,0.082,0.082,0.082,0.082,0.082,0.0387,0.0323,0.0275,0.0172,0.0114,0.0036,-0.0012,-0.007,-0.0124,-0.0148,-0.0147,-0.0113,0.0245,0.0779,0.1035,0.1044,0.1186,0.1154,0.1304,0.114,0.1135,0.1132,0.1091,0.1175,0.1176,0.1436,0.1439,0.1441]}],[{"header":{"parameterUnit":"m.s-1","parameterCategory":2,"la1":30.2991,"la2":30.254,"lo1":-89.0895,"lo2":-89.0444,"dy":0.0017,"dx":0.0017,"nx":28,"ny":28,"refTime":"2023-10-22T21:00:00:Z","depth":"2","parameterNumber":2,"parameterNumberName":"U-component_of_CURRENTS"},"data":[0,0,0,0,0,0,0,0,0,0,0,0,0,0,0,0,0,0,0,0,0,0,0,0,0,0,0,0,0,0,0,0,0,0,0,0,0,0,0,0,0,0,0,0,0,0,0,0,0,0,0,0,0,0,0,0,0,0,-0.1754,-0.1755,0,-0.1806,-0.1806,-0.1806,-0.1812,-0.1812,-0.1812,-0.1812,-0.1722,-0.1719,-0.1717,0,0,0,0,0,0,0,0,0,0,0,0,0,-0.1629,-0.163,-0.1754,-0.1755,-0.1756,-0.1806,-0.1806,-0.1806,-0.1812,-0.1812,-0.1812,-0.1812,-0.1722,-0.172,-0.1717,0,0,0,0,0,0,0,0,0,0,0,0,0,-0.1677,-0.1631,-0.1753,-0.1769,-0.1771,-0.1806,-0.1806,-0.1806,-0.1812,-0.1812,-0.1812,-0.1812,-0.1723,-0.172,-0.1716,-0.1694,0,0,-0.1705,-0.1704,0,0,0,0,0,0,0,0,-0.1674,-0.168,-0.1765,-0.1768,-0.1771,-0.1807,-0.173,-0.1764,-0.1812,-0.179,-0.1812,-0.1812,-0.1741,-0.1736,-0.1739,-0.169,-0.1686,-0.1705,-0.1703,-0.1701,-0.17,0,0,0,0,0,0,0,-0.1671,-0.1678,-0.1768,-0.1767,-0.177,-0.1764,-0.177,-0.1736,-0.1758,-0.1792,-0.1794,-0.1809,-0.174,-0.1743,-0.1737,-0.1685,-0.1705,-0.1702,-0.17,-0.1698,-0.1587,-0.1586,0,0,0,0,0,0,-0.1678,-0.1675,-0.1767,-0.1771,-0.1728,-0.1766,-0.1773,-0.1791,-0.1761,-0.176,-0.1809,-0.1809,-0.1749,-0.1741,-0.1734,-0.1735,-0.1701,-0.1698,-0.1696,-0.1587,-0.1586,-0.1586,0,0,0,0,0,0,-0.1675,-0.1686,-0.1765,-0.1728,-0.1739,-0.177,-0.1789,-0.1792,-0.1796,-0.1777,-0.1771,-0.1811,-0.1749,-0.1739,-0.1701,-0.173,-0.1696,-0.1693,-0.1588,-0.1587,-0.1586,-0.1717,0,0,0,0,0,0,-0.1671,-0.1684,-0.1702,-0.1729,-0.1741,-0.1791,-0.1789,-0.1793,-0.1808,-0.1809,-0.1776,-0.1768,-0.1748,-0.1707,-0.1697,-0.1724,-0.169,-0.1589,-0.1588,-0.1586,-0.1714,-0.172,-0.1726,0,0,0,0,0,-0.1666,-0.1689,-0.1702,-0.1714,-0.1764,-0.1792,-0.1797,-0.1814,-0.1809,-0.1815,-0.1785,-0.1769,-0.169,-0.1703,-0.1693,-0.1719,-0.159,-0.1588,-0.1587,-0.1711,-0.1719,-0.1726,0,0,0,0,0,0,-0.1665,-0.1693,-0.1708,-0.1745,-0.1771,-0.1795,-0.1806,-0.1814,-0.1798,-0.1791,-0.1761,-0.1751,-0.1727,-0.1688,-0.1703,-0.1674,-0.1636,-0.1632,-0.1734,-0.1741,-0.1747,-0.1731,-0.1687,0,0,0,0,0,-0.167,-0.1667,-0.1719,-0.1738,-0.1758,-0.1779,-0.1793,-0.1806,-0.1801,-0.1796,-0.1771,-0.1734,-0.1711,-0.1699,-0.166,-0.1647,-0.1586,-0.165,-0.1657,-0.1663,-0.1637,-0.1584,-0.1585,-0.158,-0.158,-0.158,0,0,-0.1695,-0.1686,-0.1704,-0.1733,-0.175,-0.1771,-0.1785,-0.1808,-0.1808,-0.1784,-0.176,-0.1749,-0.1705,-0.1698,-0.1683,-0.1673,-0.1631,-0.166,-0.1667,-0.1636,-0.1582,-0.1583,-0.1584,-0.1578,-0.1578,-0.1579,0,0,-0.1693,-0.1716,-0.1716,-0.173,-0.175,-0.1764,-0.1771,-0.1799,-0.1799,-0.1787,-0.1773,-0.1773,-0.1723,-0.1721,-0.1708,-0.1712,-0.1659,-0.1705,-0.174,-0.1692,-0.1693,-0.1693,-0.1625,-0.1618,-0.172,-0.172,-0.172,0,-0.1707,-0.1711,-0.1725,-0.1718,-0.1722,-0.1758,-0.1768,-0.178,-0.1784,-0.178,-0.1781,-0.1741,-0.1731,-0.1727,-0.1752,-0.1732,-0.1682,-0.1734,-0.1705,-0.1703,-0.17,-0.1631,-0.1621,-0.1726,-0.1725,-0.1725,-0.1724,0,-0.1697,-0.1714,-0.1711,-0.17,-0.1713,-0.1723,-0.1752,-0.176,-0.1763,-0.1776,-0.1769,-0.1767,-0.1745,-0.1766,-0.1771,-0.1765,-0.1728,-0.172,-0.17,-0.171,-0.1634,-0.1622,-0.1735,-0.1733,-0.1731,-0.1729,0,0,-0.1675,-0.17,-0.1702,-0.1696,-0.1699,-0.1708,-0.1712,-0.173,-0.1734,-0.175,-0.1737,-0.1763,-0.1783,-0.1766,-0.1787,-0.1777,-0.1758,-0.176,-0.1754,-0.1716,-0.1633,-0.1624,-0.1608,-0.1758,-0.1756,-0.1755,-0.1593,0,-0.1653,-0.165,-0.1657,-0.1657,-0.1665,-0.1682,-0.1683,-0.1701,-0.1713,-0.1713,-0.1735,-0.1729,-0.1776,-0.179,-0.1791,-0.1748,-0.1728,-0.1801,-0.1605,-0.1598,-0.161,-0.1595,-0.1538,-0.139,-0.158,-0.1578,-0.1576,0,-0.1617,-0.1614,-0.1625,-0.1629,-0.1637,-0.1645,-0.1642,-0.1658,-0.1681,-0.1688,-0.1706,-0.1705,-0.1705,-0.1737,-0.1666,-0.1711,-0.1677,-0.165,-0.1642,-0.157,-0.1565,-0.1403,-0.1359,-0.1554,-0.1556,-0.1558,-0.1559,0,-0.1556,-0.1577,-0.1576,-0.1577,-0.1605,-0.1608,-0.1631,-0.1659,-0.1656,-0.168,-0.1662,-0.1662,-0.1639,-0.1601,-0.1585,-0.1607,-0.1485,-0.1495,-0.1444,-0.1442,-0.1316,-0.1307,-0.1424,-0.1424,-0.1425,-0.1425,-0.1426,0,-0.1482,-0.1475,-0.1562,-0.1558,-0.1552,-0.1594,-0.1599,-0.1622,-0.1641,-0.1625,-0.1661,-0.1625,-0.1604,-0.1548,-0.1535,-0.1451,-0.1437,-0.1423,-0.1397,-0.1361,-0.1357,-0.1436,-0.1439,-0.1419,-0.142,-0.1421,-0.1423,0,-0.1375,-0.1436,-0.1446,-0.1515,-0.1523,-0.1533,-0.1568,-0.1574,-0.1612,-0.1579,-0.1572,-0.1553,-0.1482,-0.1459,-0.1376,-0.1367,-0.1302,-0.1284,-0.1244,-0.1217,-0.1291,-0.1302,-0.1155,-0.1153,-0.1152,-0.115,-0.1149,0,-0.1291,-0.1301,-0.1411,-0.1438,-0.1462,-0.1495,-0.1503,-0.1546,-0.155,-0.1532,-0.1494,-0.1429,-0.1367,-0.1258,-0.1236,-0.1163,-0.1232,-0.1081,-0.1122,-0.1272,-0.1261,-0.1275,-0.1289,-0.0996,-0.0993,-0.0992,-0.099,0,-0.114,-0.1226,-0.1281,-0.1365,-0.1391,-0.139,-0.1423,-0.1399,-0.1436,-0.1399,-0.1346,-0.129,-0.1212,-0.1124,-0.1072,-0.1032,-0.109,-0.1041,-0.117,-0.1103,-0.1117,-0.1109,-0.1128,-0.0974,-0.0976,-0.0977,-0.0978,-0.0978,-0.1055,-0.109,-0.1228,-0.1274,-0.1316,-0.1294,-0.1272,-0.1276,-0.123,-0.1161,-0.1184,-0.111,-0.1077,-0.0965,-0.0915,-0.0906,-0.0957,-0.0934,-0.094,-0.0949,-0.0989,-0.1004,-0.0844,-0.0845,-0.0846,-0.0846,-0.0847,0,-0.0937,-0.1031,-0.1106,-0.12,-0.1203,-0.1243,-0.121,-0.1135,-0.1046,-0.1036,-0.0981,-0.0862,-0.0827,-0.0834,-0.0801,-0.0771,-0.0767,-0.0742,-0.0758,-0.0774,-0.0788,-0.0823,-0.0631,-0.0631,-0.063,-0.063,0,0,-0.0896,-0.0941,-0.1,-0.1028,-0.1102,-0.1053,-0.1007,-0.0858,-0.0823,-0.0713,-0.0732,-0.0783,-0.0828,-0.074,-0.0697,-0.0679,-0.0717,-0.0644,-0.0818,-0.0853,-0.0867,-0.0898,-0.097,0,0,0,0,0]},{"header":{"parameterUnit":"m.s-1","parameterCategory":2,"la1":30.2991,"la2":30.254,"lo1":-89.0895,"lo2":-89.0444,"dy":0.0017,"dx":0.0017,"nx":28,"ny":28,"refTime":"2023-10-22T21:00:00:Z","depth":"2","parameterNumber":3,"parameterNumberName":"V-component_of_CURRENTS"},"data":[0,0,0,0,0,0,0,0,0,0,0,0,0,0,0,0,0,0,0,0,0,0,0,0,0,0,0,0,0,0,0,0,0,0,0,0,0,0,0,0,0,0,0,0,0,0,0,0,0,0,0,0,0,0,0,0,0,0,-0.0498,-0.0496,0,-0.0299,-0.0297,-0.0295,-0.0198,-0.0198,-0.0198,-0.0198,-0.0045,-0.0042,-0.0038,0,0,0,0,0,0,0,0,0,0,0,0,0,-0.0517,-0.0519,-0.0498,-0.0495,-0.0493,-0.0299,-0.0297,-0.0294,-0.0198,-0.0198,-0.0198,-0.0198,-0.0047,-0.0042,-0.0037,0,0,0,0,0,0,0,0,0,0,0,0,0,-0.0435,-0.052,-0.0499,-0.042,-0.0411,-0.03,-0.0297,-0.0294,-0.0198,-0.0198,-0.0198,-0.0198,-0.0048,-0.0043,-0.0037,-0.0004,0,0,-0.0019,-0.0016,0,0,0,0,0,0,0,0,-0.044,-0.0435,-0.0434,-0.0425,-0.0415,-0.0272,-0.0247,-0.0198,-0.0198,-0.0281,-0.0198,-0.0198,-0.0124,-0.0112,-0.0077,0.0004,0.001,-0.0018,-0.0014,-0.0012,-0.001,0,0,0,0,0,0,0,-0.0446,-0.0441,-0.0421,-0.0432,-0.042,-0.0299,-0.0291,-0.0236,-0.0208,-0.0274,-0.0266,-0.0241,-0.012,-0.0083,-0.0073,0.0012,-0.0018,-0.0013,-0.0009,-0.0007,0.0215,0.0217,0,0,0,0,0,0,-0.0483,-0.0449,-0.0427,-0.0415,-0.0425,-0.0301,-0.029,-0.0319,-0.0208,-0.0189,-0.0241,-0.0237,-0.0093,-0.008,-0.0067,0.0057,-0.0012,-0.0006,-0.0003,0.0212,0.0215,0.0218,0,0,0,0,0,0,-0.0485,-0.0485,-0.0435,-0.0421,-0.0407,-0.0302,-0.0334,-0.0315,-0.027,-0.0182,-0.0165,-0.0214,-0.0092,-0.0076,0.0008,0.006,-0.0004,0.0002,0.021,0.0213,0.0216,0.0254,0,0,0,0,0,0,-0.0488,-0.0489,-0.0506,-0.0427,-0.0409,-0.0369,-0.0333,-0.0312,-0.0254,-0.0247,-0.0153,-0.0139,-0.0091,-0.0001,0.0014,0.0067,0.0006,0.0207,0.0211,0.0215,0.025,0.0259,0.0266,0,0,0,0,0,-0.049,-0.0511,-0.051,-0.0505,-0.0445,-0.0368,-0.0348,-0.0271,-0.0254,-0.0231,-0.0155,-0.0142,0.0037,0.0006,0.0023,0.0079,0.0204,0.021,0.0215,0.0246,0.0257,0.0266,0,0,0,0,0,0,-0.0496,-0.0501,-0.0498,-0.0514,-0.045,-0.0352,-0.0308,-0.0272,-0.0193,-0.0179,-0.0114,-0.0093,0.0005,0.003,-0.0007,0.0156,0.0124,0.0133,0.0142,0.0153,0.016,0.0115,0.0011,0,0,0,0,0,-0.0519,-0.0563,-0.0509,-0.0517,-0.0486,-0.0403,-0.0357,-0.0311,-0.0233,-0.0198,-0.0127,-0.0046,0.004,0.0083,0.0156,0.0235,0.0225,0.0283,0.0291,0.0298,0.0274,0.0307,0.0314,0.0235,0.0235,0.0235,0,0,-0.0494,-0.0528,-0.0527,-0.0523,-0.0463,-0.0406,-0.0375,-0.0306,-0.025,-0.0195,-0.0091,-0.0017,0.0067,0.0173,0.0218,0.02,0.032,0.0304,0.0309,0.0281,0.0313,0.032,0.0326,0.0238,0.0238,0.0237,0,0,-0.0483,-0.0522,-0.0536,-0.05,-0.0447,-0.04,-0.0387,-0.0287,-0.0234,-0.0138,-0.0068,0.0026,0.0147,0.0228,0.028,0.0368,0.0361,0.0402,0.0408,0.0442,0.0448,0.0452,0.0458,0.0462,0.0405,0.0405,0.0405,0,-0.0462,-0.0492,-0.0508,-0.0502,-0.0455,-0.0404,-0.0349,-0.0289,-0.0171,-0.0121,-0.0105,0.01,0.0173,0.0303,0.0348,0.0385,0.0386,0.0366,0.0449,0.0453,0.0457,0.0461,0.0466,0.0408,0.0408,0.0407,0.0407,0,-0.0461,-0.0449,-0.044,-0.0445,-0.04,-0.0344,-0.0272,-0.0218,-0.0158,-0.0087,0.0046,0.0152,0.0263,0.0323,0.0367,0.0458,0.0444,0.0453,0.0414,0.0467,0.0469,0.0473,0.0411,0.0411,0.041,0.0409,0,0,-0.0521,-0.0452,-0.0453,-0.041,-0.0365,-0.0323,-0.0251,-0.0159,-0.0109,0.0003,0.0077,0.0252,0.0293,0.0353,0.0429,0.0469,0.0521,0.0472,0.0473,0.0457,0.0571,0.048,0.0476,0.0543,0.0544,0.0545,0.0562,0,-0.0507,-0.047,-0.0448,-0.0357,-0.0302,-0.0247,-0.0188,-0.0109,-0.0037,0.004,0.0145,0.0249,0.031,0.0367,0.0422,0.0491,0.0532,0.0513,0.0538,0.0538,0.0435,0.0478,0.0476,0.0484,0.0566,0.0567,0.0567,0,-0.054,-0.0509,-0.0423,-0.0306,-0.0279,-0.022,-0.014,-0.0075,0.0022,0.0073,0.0168,0.0234,0.0336,0.036,0.0479,0.0461,0.0515,0.0557,0.0559,0.0453,0.0454,0.0446,0.0488,0.0574,0.0573,0.0573,0.0572,0,-0.0614,-0.0494,-0.043,-0.0392,-0.0267,-0.0209,-0.0139,-0.0049,-0.001,0.009,0.0107,0.0234,0.0279,0.0365,0.0449,0.0469,0.0531,0.0573,0.0544,0.0538,0.0525,0.0515,0.0644,0.0644,0.0644,0.0644,0.0644,0,-0.0654,-0.059,-0.0439,-0.041,-0.0327,-0.0223,-0.0142,-0.0082,-0.0005,0.0019,0.0126,0.0127,0.0278,0.0327,0.0419,0.0466,0.0511,0.0531,0.0536,0.054,0.0531,0.0597,0.0591,0.0645,0.0645,0.0645,0.0644,0,-0.0739,-0.0647,-0.0564,-0.0412,-0.036,-0.0306,-0.0166,-0.0118,-0.0046,-0.0029,-0.0011,0.0047,0.0112,0.0243,0.036,0.0405,0.0477,0.0489,0.046,0.0459,0.0474,0.047,0.0466,0.0463,0.046,0.0458,0.0456,0,-0.0757,-0.0727,-0.0604,-0.0569,-0.0486,-0.0371,-0.0303,-0.017,-0.0132,-0.0104,-0.0121,-0.0062,-0.0056,0.0065,0.021,0.0345,0.0402,0.0376,0.042,0.045,0.0456,0.0457,0.0457,0.044,0.0438,0.0436,0.0435,0,-0.079,-0.0772,-0.0727,-0.0673,-0.0584,-0.0498,-0.0378,-0.0376,-0.0263,-0.0261,-0.0301,-0.0305,-0.0163,-0.0046,0.0121,0.0199,0.0354,0.0343,0.0407,0.0458,0.0419,0.0426,0.0429,0.0422,0.0423,0.0424,0.0425,0.0425,-0.0822,-0.0827,-0.0796,-0.0749,-0.0689,-0.0646,-0.0597,-0.0519,-0.0511,-0.0496,-0.0477,-0.0437,-0.0279,-0.0054,0.0082,0.0246,0.0252,0.0301,0.0309,0.0319,0.0285,0.0241,0.0204,0.0204,0.0204,0.0204,0.0204,0,-0.0824,-0.085,-0.0847,-0.0809,-0.0805,-0.0726,-0.0666,-0.0634,-0.0654,-0.0591,-0.0585,-0.0453,-0.031,-0.0095,0.0145,0.0231,0.0293,0.0249,0.0339,0.0348,0.0357,0.0331,0.026,0.0261,0.0261,0.0262,0,0,-0.0824,-0.0846,-0.0865,-0.0897,-0.0891,-0.0857,-0.0839,-0.0808,-0.0745,-0.0726,-0.0632,-0.0529,-0.0302,-0.0124,0.0033,0.0171,0.0235,0.0178,0.0116,0.0212,0.0221,0.036,0.0323,0,0,0,0,0]}],[{"header":{"parameterUnit":"m.s-1","parameterCategory":2,"la1":30.2991,"la2":30.254,"lo1":-89.0895,"lo2":-89.0444,"dy":0.0017,"dx":0.0017,"nx":28,"ny":28,"refTime":"2023-10-22T21:00:00:Z","depth":"4","parameterNumber":2,"parameterNumberName":"U-component_of_CURRENTS"},"data":[0,0,0,0,0,0,0,0,0,0,0,0,0,0,0,0,0,0,0,0,0,0,0,0,0,0,0,0,0,0,0,0,0,0,0,0,0,0,0,0,0,0,0,0,0,0,0,0,0,0,0,0,0,0,0,0,0,0,-0.063,-0.0631,0,-0.0687,-0.0687,-0.0688,-0.0717,-0.0718,-0.0718,-0.0718,-0.0769,-0.077,-0.0771,0,0,0,0,0,0,0,0,0,0,0,0,0,-0.0604,-0.0604,-0.063,-0.0631,-0.0632,-0.0687,-0.0687,-0.0688,-0.0717,-0.0718,-0.0718,-0.0718,-0.0769,-0.077,-0.0771,0,0,0,0,0,0,0,0,0,0,0,0,0,-0.0632,-0.0604,-0.063,-0.0655,-0.0658,-0.0687,-0.0688,-0.0688,-0.0717,-0.0718,-0.0718,-0.0718,-0.0768,-0.077,-0.0772,-0.0776,0,0,-0.0777,-0.0778,0,0,0,0,0,0,0,0,-0.063,-0.0632,-0.065,-0.0653,-0.0656,-0.0697,-0.0697,-0.0718,-0.0717,-0.0693,-0.0718,-0.0718,-0.0746,-0.0749,-0.0756,-0.0778,-0.078,-0.0777,-0.0778,-0.0779,-0.0779,0,0,0,0,0,0,0,-0.0628,-0.063,-0.0651,-0.0651,-0.0655,-0.0683,-0.0686,-0.0701,-0.0715,-0.0695,-0.0698,-0.0707,-0.0747,-0.0755,-0.0758,-0.0781,-0.0777,-0.0779,-0.078,-0.078,-0.0858,-0.0859,0,0,0,0,0,0,-0.0621,-0.0628,-0.0649,-0.0653,-0.0646,-0.0683,-0.0686,-0.0682,-0.0715,-0.0721,-0.0706,-0.0708,-0.0752,-0.0756,-0.076,-0.0796,-0.0779,-0.078,-0.0781,-0.0857,-0.0858,-0.0859,0,0,0,0,0,0,-0.062,-0.0622,-0.0647,-0.0644,-0.065,-0.0682,-0.0678,-0.0683,-0.0705,-0.0724,-0.073,-0.0724,-0.0752,-0.0757,-0.0781,-0.0797,-0.0781,-0.0783,-0.0855,-0.0857,-0.0858,-0.085,0,0,0,0,0,0,-0.0619,-0.0621,-0.0619,-0.0643,-0.0649,-0.0669,-0.0678,-0.0684,-0.071,-0.0713,-0.0741,-0.0745,-0.0753,-0.0778,-0.0783,-0.0799,-0.0784,-0.0854,-0.0856,-0.0858,-0.0849,-0.0851,-0.0853,0,0,0,0,0,-0.0618,-0.0613,-0.0618,-0.0621,-0.0643,-0.067,-0.0676,-0.07,-0.0711,-0.072,-0.0738,-0.0745,-0.0794,-0.078,-0.0785,-0.0803,-0.0853,-0.0855,-0.0858,-0.0848,-0.085,-0.0853,0,0,0,0,0,0,-0.0609,-0.0616,-0.0622,-0.0622,-0.0647,-0.0676,-0.0691,-0.0707,-0.0729,-0.0736,-0.0751,-0.0756,-0.078,-0.0797,-0.0782,-0.0833,-0.0828,-0.0831,-0.0819,-0.0821,-0.0823,-0.0821,-0.0786,0,0,0,0,0,-0.0603,-0.0596,-0.0619,-0.0622,-0.0635,-0.0665,-0.0681,-0.0698,-0.0722,-0.0733,-0.075,-0.0775,-0.0792,-0.0811,-0.0823,-0.0853,-0.0855,-0.0872,-0.0874,-0.0875,-0.0879,-0.0904,-0.0908,-0.0866,-0.0866,-0.0866,0,0,-0.0599,-0.0606,-0.0602,-0.062,-0.0643,-0.066,-0.0676,-0.0705,-0.072,-0.0734,-0.0761,-0.0774,-0.0798,-0.0824,-0.0839,-0.0843,-0.0883,-0.0878,-0.0879,-0.0882,-0.0907,-0.0911,-0.0915,-0.0868,-0.0868,-0.0867,0,0,-0.0599,-0.0599,-0.0599,-0.0615,-0.0648,-0.0667,-0.0677,-0.071,-0.0728,-0.0756,-0.0765,-0.0789,-0.0825,-0.084,-0.0854,-0.0878,-0.0882,-0.0893,-0.0911,-0.0936,-0.0939,-0.0942,-0.0919,-0.092,-0.0906,-0.0906,-0.0906,0,-0.0597,-0.0598,-0.0608,-0.0619,-0.0634,-0.067,-0.0684,-0.0706,-0.0742,-0.0753,-0.0766,-0.0814,-0.0832,-0.086,-0.0873,-0.0881,-0.0884,-0.0896,-0.0937,-0.094,-0.0943,-0.0919,-0.092,-0.0905,-0.0906,-0.0906,-0.0906,0,-0.0598,-0.0603,-0.0611,-0.0627,-0.0643,-0.0665,-0.0693,-0.0713,-0.0742,-0.0763,-0.0797,-0.0824,-0.0855,-0.0869,-0.0882,-0.0918,-0.0906,-0.0923,-0.0925,-0.0946,-0.092,-0.0921,-0.0905,-0.0905,-0.0905,-0.0905,0,0,-0.058,-0.0604,-0.0605,-0.0617,-0.0649,-0.0664,-0.0687,-0.0717,-0.0732,-0.0775,-0.0794,-0.0841,-0.0862,-0.088,-0.09,-0.0933,-0.0948,-0.0948,-0.0949,-0.0913,-0.0974,-0.0903,-0.0897,-0.0981,-0.0982,-0.0982,-0.0934,0,-0.0583,-0.0595,-0.0607,-0.0627,-0.0642,-0.0667,-0.068,-0.0709,-0.074,-0.0763,-0.0807,-0.0831,-0.0866,-0.0881,-0.0922,-0.0938,-0.0958,-0.0958,-0.0969,-0.0969,-0.0894,-0.0899,-0.0986,-0.0935,-0.0936,-0.0936,-0.0936,0,-0.058,-0.059,-0.0602,-0.0626,-0.0634,-0.0648,-0.0672,-0.0689,-0.0725,-0.0749,-0.0791,-0.0817,-0.0862,-0.0891,-0.0943,-0.0945,-0.0964,-0.0978,-0.0977,-0.0918,-0.0901,-0.092,-0.0939,-0.0939,-0.0938,-0.0938,-0.0938,0,-0.0561,-0.0587,-0.0595,-0.0602,-0.0632,-0.0641,-0.0658,-0.0686,-0.07,-0.0737,-0.075,-0.0807,-0.0826,-0.0881,-0.0914,-0.0937,-0.0952,-0.0983,-0.0927,-0.092,-0.1001,-0.0999,-0.1019,-0.1019,-0.1019,-0.1019,-0.1019,0,-0.0552,-0.0562,-0.0589,-0.0592,-0.0604,-0.0627,-0.0639,-0.066,-0.0687,-0.0695,-0.0744,-0.0755,-0.0833,-0.085,-0.0896,-0.0897,-0.0936,-0.092,-0.0911,-0.0994,-0.0992,-0.1,-0.0998,-0.1017,-0.1017,-0.1018,-0.1018,0,-0.0528,-0.0545,-0.0561,-0.0587,-0.0597,-0.0602,-0.0628,-0.0633,-0.0659,-0.0668,-0.0678,-0.0716,-0.0734,-0.0778,-0.083,-0.0847,-0.0868,-0.0857,-0.0896,-0.0891,-0.0821,-0.082,-0.0796,-0.0794,-0.0791,-0.0789,-0.0788,0,-0.0513,-0.0517,-0.0546,-0.0551,-0.0565,-0.0579,-0.0585,-0.0618,-0.062,-0.0639,-0.0635,-0.0649,-0.0674,-0.0666,-0.0734,-0.0769,-0.0787,-0.0775,-0.085,-0.0809,-0.0803,-0.0805,-0.0807,-0.0784,-0.0784,-0.0783,-0.0782,0,-0.0485,-0.0497,-0.0504,-0.0512,-0.0524,-0.0534,-0.0544,-0.0539,-0.0562,-0.0596,-0.0576,-0.0587,-0.0586,-0.0624,-0.0629,-0.0675,-0.0777,-0.0751,-0.0758,-0.0829,-0.0794,-0.079,-0.0795,-0.0774,-0.0775,-0.0776,-0.0777,0,-0.046,-0.0455,-0.0461,-0.0464,-0.0478,-0.0473,-0.0489,-0.0484,-0.049,-0.0514,-0.0504,-0.053,-0.056,-0.0573,-0.0594,-0.0608,-0.064,-0.0656,-0.0669,-0.0679,-0.0671,-0.061,-0.0519,0,0,0,0,0,-0.0429,-0.0415,-0.0413,-0.0409,-0.042,-0.0425,-0.045,-0.0466,-0.0489,-0.0459,-0.048,-0.048,-0.05,-0.052,-0.0521,-0.0572,-0.065,-0.0573,-0.0676,-0.073,-0.0739,-0.0745,0,0,0,0,0,0,-0.0407,-0.0401,-0.0394,-0.0359,-0.0343,-0.0349,-0.0362,-0.0384,-0.0369,-0.04,-0.041,-0.0452,-0.0477,-0.0482,-0.0505,-0.0516,-0.0576,-0.0601,-0.06,-0.0724,-0.0733,-0.074,-0.075,0,0,0,0,0]},{"header":{"parameterUnit":"m.s-1","parameterCategory":2,"la1":30.2991,"la2":30.254,"lo1":-89.0895,"lo2":-89.0444,"dy":0.0017,"dx":0.0017,"nx":28,"ny":28,"refTime":"2023-10-22T21:00:00:Z","depth":"4","parameterNumber":3,"parameterNumberName":"V-component_of_CURRENTS"},"data":[0,0,0,0,0,0,0,0,0,0,0,0,0,0,0,0,0,0,0,0,0,0,0,0,0,0,0,0,0,0,0,0,0,0,0,0,0,0,0,0,0,0,0,0,0,0,0,0,0,0,0,0,0,0,0,0,0,0,-0.0476,-0.0476,0,-0.0476,-0.0476,-0.0476,-0.0471,-0.0471,-0.0471,-0.0471,-0.0439,-0.0438,-0.0437,0,0,0,0,0,0,0,0,0,0,0,0,0,-0.0457,-0.0458,-0.0476,-0.0476,-0.0476,-0.0476,-0.0476,-0.0476,-0.0471,-0.0471,-0.0471,-0.0471,-0.0439,-0.0438,-0.0437,0,0,0,0,0,0,0,0,0,0,0,0,0,-0.046,-0.0458,-0.0476,-0.0475,-0.0475,-0.0476,-0.0476,-0.0476,-0.0471,-0.0471,-0.0471,-0.0471,-0.044,-0.0438,-0.0437,-0.0428,0,0,-0.0433,-0.0432,0,0,0,0,0,0,0,0,-0.046,-0.0461,-0.0475,-0.0475,-0.0475,-0.0475,-0.0458,-0.0459,-0.0471,-0.047,-0.0471,-0.0471,-0.0449,-0.0447,-0.0445,-0.0426,-0.0425,-0.0433,-0.0432,-0.0432,-0.0431,0,0,0,0,0,0,0,-0.046,-0.0461,-0.0474,-0.0475,-0.0476,-0.047,-0.0471,-0.0458,-0.0457,-0.047,-0.047,-0.0474,-0.0449,-0.0446,-0.0444,-0.0424,-0.0433,-0.0432,-0.0431,-0.043,-0.0437,-0.0438,0,0,0,0,0,0,-0.0465,-0.0461,-0.0474,-0.0474,-0.047,-0.0471,-0.0471,-0.0474,-0.0458,-0.0457,-0.0474,-0.0473,-0.0448,-0.0446,-0.0443,-0.0462,-0.0432,-0.043,-0.043,-0.0436,-0.0437,-0.0438,0,0,0,0,0,0,-0.0464,-0.0466,-0.0474,-0.0469,-0.047,-0.0471,-0.0474,-0.0474,-0.0479,-0.0461,-0.0459,-0.0481,-0.0448,-0.0445,-0.0447,-0.0459,-0.043,-0.0429,-0.0435,-0.0436,-0.0438,-0.048,0,0,0,0,0,0,-0.0464,-0.0466,-0.0475,-0.0469,-0.0471,-0.048,-0.0474,-0.0474,-0.0481,-0.0481,-0.0466,-0.0463,-0.0448,-0.0449,-0.0446,-0.0457,-0.0427,-0.0434,-0.0436,-0.0437,-0.0478,-0.0483,-0.0487,0,0,0,0,0,-0.0463,-0.0472,-0.0475,-0.0477,-0.0481,-0.048,-0.048,-0.0479,-0.0482,-0.0485,-0.0483,-0.0464,-0.0458,-0.0449,-0.0444,-0.0456,-0.0433,-0.0435,-0.0437,-0.0475,-0.0482,-0.0487,0,0,0,0,0,0,-0.0468,-0.0472,-0.0475,-0.0486,-0.0486,-0.048,-0.0485,-0.0486,-0.0487,-0.0489,-0.0473,-0.047,-0.0478,-0.0463,-0.0453,-0.0465,-0.0444,-0.0445,-0.0474,-0.048,-0.0485,-0.0486,-0.0426,0,0,0,0,0,-0.0474,-0.0483,-0.0483,-0.0492,-0.0493,-0.0491,-0.0494,-0.0494,-0.0492,-0.0493,-0.0486,-0.0482,-0.0482,-0.0479,-0.0473,-0.0475,-0.0464,-0.0482,-0.0487,-0.0491,-0.0491,-0.0492,-0.0497,-0.0445,-0.0445,-0.0445,0,0,-0.0483,-0.0484,-0.0491,-0.0494,-0.0494,-0.05,-0.0492,-0.0497,-0.0507,-0.0488,-0.0501,-0.0497,-0.0488,-0.0495,-0.0497,-0.0484,-0.0501,-0.0494,-0.0497,-0.0495,-0.0495,-0.05,-0.0504,-0.0447,-0.0447,-0.0446,0,0,-0.0495,-0.05,-0.0509,-0.051,-0.0513,-0.0512,-0.0517,-0.0517,-0.0521,-0.0532,-0.0526,-0.0536,-0.0529,-0.0529,-0.0528,-0.0557,-0.0529,-0.0553,-0.0575,-0.0577,-0.0581,-0.0584,-0.0581,-0.0584,-0.0553,-0.0553,-0.0553,0,-0.0511,-0.0516,-0.0512,-0.0517,-0.0525,-0.052,-0.0532,-0.0534,-0.0538,-0.0544,-0.0543,-0.0553,-0.0548,-0.056,-0.0574,-0.0568,-0.0559,-0.0552,-0.0583,-0.0586,-0.0589,-0.0584,-0.0586,-0.0556,-0.0555,-0.0555,-0.0555,0,-0.0522,-0.0532,-0.0535,-0.0544,-0.055,-0.0557,-0.0561,-0.057,-0.0578,-0.058,-0.0597,-0.0597,-0.0602,-0.0606,-0.0599,-0.0617,-0.0601,-0.059,-0.0566,-0.0596,-0.059,-0.0591,-0.0559,-0.0558,-0.0557,-0.0557,0,0,-0.0548,-0.0547,-0.0551,-0.0558,-0.0566,-0.0571,-0.0589,-0.0602,-0.0616,-0.0623,-0.0641,-0.0653,-0.065,-0.0649,-0.0643,-0.0646,-0.0665,-0.0627,-0.0626,-0.0621,-0.0663,-0.0576,-0.057,-0.0655,-0.0656,-0.0656,-0.0651,0,-0.0563,-0.0574,-0.0575,-0.0596,-0.0602,-0.0608,-0.0625,-0.0636,-0.0647,-0.066,-0.0663,-0.0676,-0.0666,-0.0674,-0.0677,-0.0668,-0.0671,-0.0667,-0.0636,-0.0635,-0.0552,-0.0569,-0.0658,-0.0652,-0.0653,-0.0653,-0.0653,0,-0.0573,-0.0579,-0.0599,-0.0616,-0.0621,-0.0638,-0.0664,-0.0677,-0.0691,-0.0699,-0.071,-0.0707,-0.072,-0.0707,-0.0704,-0.0699,-0.0686,-0.0676,-0.0676,-0.0579,-0.0552,-0.0615,-0.0656,-0.0656,-0.0656,-0.0655,-0.0655,0,-0.0577,-0.0597,-0.0614,-0.062,-0.0638,-0.0657,-0.0672,-0.0691,-0.0704,-0.0724,-0.0734,-0.0741,-0.0744,-0.0737,-0.071,-0.0713,-0.0693,-0.0696,-0.0606,-0.06,-0.0661,-0.0657,-0.0694,-0.0694,-0.0694,-0.0694,-0.0694,0,-0.0581,-0.0596,-0.0618,-0.0626,-0.0654,-0.0666,-0.0696,-0.0712,-0.0732,-0.0744,-0.0752,-0.0756,-0.075,-0.0733,-0.0717,-0.0653,-0.0698,-0.0608,-0.0591,-0.068,-0.0678,-0.0662,-0.0658,-0.0694,-0.0694,-0.0694,-0.0694,0,-0.0573,-0.0586,-0.0608,-0.0639,-0.0654,-0.0673,-0.0709,-0.0727,-0.0745,-0.0762,-0.0769,-0.077,-0.0738,-0.0712,-0.069,-0.0647,-0.061,-0.0576,-0.0665,-0.0654,-0.052,-0.0518,-0.049,-0.0487,-0.0484,-0.0482,-0.048,0,-0.0562,-0.0572,-0.0617,-0.0638,-0.0656,-0.0686,-0.0708,-0.0734,-0.0747,-0.0762,-0.0765,-0.0743,-0.0729,-0.0638,-0.0609,-0.055,-0.0534,-0.0515,-0.0526,-0.0511,-0.0498,-0.0501,-0.0504,-0.0476,-0.0475,-0.0475,-0.0474,0,-0.055,-0.0574,-0.0595,-0.0637,-0.0669,-0.07,-0.0728,-0.0733,-0.0753,-0.0769,-0.075,-0.0708,-0.0652,-0.0602,-0.0535,-0.0501,-0.0531,-0.0487,-0.0494,-0.0504,-0.0494,-0.0484,-0.049,-0.0465,-0.0466,-0.0467,-0.0468,0,-0.0547,-0.0562,-0.0599,-0.0632,-0.0675,-0.0704,-0.0718,-0.0725,-0.0735,-0.0741,-0.073,-0.0691,-0.0675,-0.0574,-0.0525,-0.0462,-0.0454,-0.0444,-0.0453,-0.0462,-0.0442,-0.0424,-0.0357,0,0,0,0,0,-0.054,-0.056,-0.0593,-0.0632,-0.0675,-0.0701,-0.073,-0.0737,-0.0744,-0.0723,-0.0725,-0.0673,-0.0578,-0.0551,-0.0472,-0.0476,-0.0443,-0.0378,-0.0437,-0.0414,-0.0424,-0.0395,0,0,0,0,0,0,-0.054,-0.0572,-0.0587,-0.0627,-0.0654,-0.0698,-0.0718,-0.0724,-0.0706,-0.0706,-0.0661,-0.064,-0.0556,-0.0625,-0.0469,-0.045,-0.0471,-0.0342,-0.0339,-0.0408,-0.0417,-0.0426,-0.04,0,0,0,0,0]}]]